| time (UTC) | temp C | wind direction | speed KPH | gust KPH | rain 1hr cm | rain 24hr cm | rain mn cm | humidity % | barometer mb |
| 20260507225505 | 17 | 143 | 3.2 | 8.0 | 0.00 | 0.15 | 0.05 | 24 | 1015.0 |
| 20260507225004 | 18 | 122 | 3.2 | 8.0 | 0.00 | 0.15 | 0.05 | 24 | 1015.1 |
| 20260507224505 | 18 | 129 | 4.8 | 12.9 | 0.00 | 0.15 | 0.05 | 24 | 1015.1 |
| 20260507224004 | 18 | 129 | 4.8 | 17.7 | 0.00 | 0.18 | 0.05 | 24 | 1015.1 |
| 20260507223505 | 18 | 104 | 4.8 | 17.7 | 0.00 | 0.18 | 0.05 | 24 | 1015.1 |
| 20260507222005 | 18 | 109 | 3.2 | 9.7 | 0.00 | 0.20 | 0.05 | 23 | 1015.3 |
| 20260507221504 | 18 | 98 | 4.8 | 11.3 | 0.00 | 0.20 | 0.05 | 24 | 1015.5 |
| 20260507221005 | 18 | 91 | 6.4 | 19.3 | 0.00 | 0.23 | 0.05 | 23 | 1015.5 |
| 20260507220504 | 19 | 89 | 6.4 | 19.3 | 0.00 | 0.23 | 0.05 | 22 | 1015.7 |
| 20260507220004 | 20 | 90 | 6.4 | 16.1 | 0.00 | 0.23 | 0.05 | 21 | 1015.7 |
| 20260507215004 | 20 | 116 | 4.8 | 17.7 | 0.00 | 0.25 | 0.05 | 22 | 1015.6 |
| 20260507214505 | 20 | 102 | 6.4 | 19.3 | 0.00 | 0.25 | 0.05 | 22 | 1015.6 |
| 20260507214004 | 20 | 99 | 4.8 | 19.3 | 0.00 | 0.28 | 0.05 | 23 | 1015.7 |
| 20260507213004 | 20 | 124 | 3.2 | 11.3 | 0.00 | 0.33 | 0.05 | 25 | 1015.7 |
| 20260507211504 | 19 | 107 | 1.6 | 8.0 | 0.00 | 0.43 | 0.05 | 27 | 1016.4 |
| 20260507211005 | 19 | 126 | 3.2 | 8.0 | 0.00 | 0.46 | 0.05 | 27 | 1016.3 |
| 20260507210505 | 18 | 135 | 3.2 | 12.9 | 0.00 | 0.46 | 0.05 | 25 | 1016.6 |
| 20260507210005 | 18 | 107 | 3.2 | 12.9 | 0.00 | 0.48 | 0.05 | 26 | 1016.7 |
| 20260507205505 | 18 | 109 | 4.8 | 16.1 | 0.00 | 0.48 | 0.05 | 26 | 1016.4 |
| 20260507205004 | 18 | 107 | 4.8 | 16.1 | 0.00 | 0.48 | 0.05 | 25 | 1016.7 |
| 20260507203505 | 18 | 120 | 3.2 | 20.9 | 0.00 | 0.51 | 0.05 | 25 | 1017.1 |
| 20260507202504 | 18 | 95 | 4.8 | 20.9 | 0.00 | 0.51 | 0.05 | 25 | 1017.0 |
| 20260507202004 | 18 | 106 | 3.2 | 9.7 | 0.00 | 0.51 | 0.05 | 27 | 1017.4 |
| 20260507201504 | 18 | 110 | 3.2 | 14.5 | 0.00 | 0.51 | 0.05 | 27 | 1017.5 |
| 20260507201005 | 18 | 111 | 4.8 | 14.5 | 0.00 | 0.51 | 0.05 | 28 | 1017.5 |
| 20260507200504 | 18 | 97 | 4.8 | 12.9 | 0.00 | 0.53 | 0.05 | 28 | 1017.7 |
| 20260507195504 | 18 | 116 | 3.2 | 8.0 | 0.00 | 0.53 | 0.05 | 28 | 1017.1 |
| 20260507195005 | 18 | 112 | 3.2 | 8.0 | 0.00 | 0.53 | 0.05 | 29 | 1017.3 |
| 20260507194004 | 17 | 92 | 3.2 | 12.9 | 0.00 | 0.53 | 0.05 | 27 | 1017.5 |
| 20260507193004 | 18 | 108 | 3.2 | 9.7 | 0.00 | 0.53 | 0.05 | 27 | 1017.5 |
| 20260507192505 | 17 | 104 | 3.2 | 12.9 | 0.00 | 0.53 | 0.05 | 28 | 1017.6 |
| 20260507191505 | 18 | 144 | 3.2 | 9.7 | 0.00 | 0.53 | 0.05 | 26 | 1017.8 |
| 20260507191005 | 18 | 125 | 3.2 | 8.0 | 0.00 | 0.53 | 0.05 | 27 | 1017.9 |
| 20260507190005 | 17 | 107 | 3.2 | 9.7 | 0.00 | 0.53 | 0.05 | 25 | 1018.1 |
| 20260507185504 | 17 | 105 | 3.2 | 11.3 | 0.00 | 0.53 | 0.05 | 26 | 1017.6 |
| 20260507184504 | 17 | 102 | 1.6 | 6.4 | 0.00 | 0.53 | 0.05 | 24 | 1017.7 |
| 20260507184004 | 17 | 89 | 1.6 | 9.7 | 0.00 | 0.53 | 0.05 | 25 | 1017.7 |
| 20260507183505 | 16 | 90 | 1.6 | 9.7 | 0.00 | 0.53 | 0.05 | 25 | 1017.8 |
| 20260507183004 | 16 | 101 | 1.6 | 8.0 | 0.00 | 0.53 | 0.05 | 25 | 1017.8 |
| 20260507182505 | 16 | 100 | 1.6 | 8.0 | 0.00 | 0.53 | 0.05 | 25 | 1017.9 |
| 20260507182004 | 16 | 104 | 1.6 | 6.4 | 0.00 | 0.53 | 0.05 | 26 | 1017.9 |
| 20260507181504 | 16 | 132 | 1.6 | 6.4 | 0.00 | 0.53 | 0.05 | 25 | 1018.0 |
| 20260507181005 | 17 | 155 | 1.6 | 6.4 | 0.00 | 0.53 | 0.05 | 23 | 1017.9 |
| 20260507180504 | 17 | 167 | 1.6 | 6.4 | 0.00 | 0.53 | 0.05 | 26 | 1018.1 |
| 20260507180005 | 17 | 152 | 1.6 | 6.4 | 0.00 | 0.53 | 0.05 | 25 | 1018.3 |
| 20260507175504 | 16 | 93 | 1.6 | 4.8 | 0.00 | 0.53 | 0.05 | 25 | 1018.0 |
| 20260507175004 | 16 | 94 | 1.6 | 8.0 | 0.00 | 0.53 | 0.05 | 26 | 1018.1 |
| 20260507174505 | 16 | 96 | 1.6 | 8.0 | 0.00 | 0.53 | 0.05 | 26 | 1018.2 |
| 20260507174004 | 16 | 104 | 1.6 | 8.0 | 0.00 | 0.53 | 0.05 | 27 | 1018.3 |
| 20260507173505 | 16 | 109 | 3.2 | 14.5 | 0.00 | 0.53 | 0.05 | 25 | 1018.5 |
| 20260507173004 | 16 | 109 | 1.6 | 14.5 | 0.00 | 0.53 | 0.05 | 25 | 1018.7 |
| 20260507172504 | 16 | 149 | 1.6 | 9.7 | 0.00 | 0.53 | 0.05 | 27 | 1018.7 |
| 20260507172004 | 16 | 105 | 1.6 | 9.7 | 0.00 | 0.53 | 0.05 | 25 | 1018.9 |
| 20260507171504 | 16 | 95 | 1.6 | 8.0 | 0.00 | 0.53 | 0.05 | 25 | 1019.0 |
| 20260507171005 | 16 | 106 | 1.6 | 6.4 | 0.00 | 0.53 | 0.05 | 25 | 1019.0 |
| 20260507170004 | 16 | 97 | 1.6 | 4.8 | 0.00 | 0.53 | 0.05 | 25 | 1019.2 |
| 20260507165505 | 15 | 108 | 1.6 | 6.4 | 0.00 | 0.53 | 0.05 | 26 | 1018.8 |
| 20260507165005 | 15 | 115 | 1.6 | 6.4 | 0.00 | 0.53 | 0.05 | 27 | 1019.0 |
| 20260507164504 | 15 | 110 | 1.6 | 6.4 | 0.00 | 0.53 | 0.05 | 25 | 1018.9 |
| 20260507164004 | 15 | 117 | 1.6 | 6.4 | 0.00 | 0.53 | 0.05 | 26 | 1019.0 |
| 20260507163505 | 15 | 122 | 1.6 | 6.4 | 0.03 | 0.53 | 0.05 | 25 | 1019.0 |
| 20260507163004 | 15 | 109 | 1.6 | 4.8 | 0.03 | 0.53 | 0.05 | 25 | 1019.1 |
| 20260507162504 | 14 | 97 | 1.6 | 6.4 | 0.03 | 0.53 | 0.05 | 29 | 1018.8 |
| 20260507162004 | 14 | 97 | 3.2 | 8.0 | 0.03 | 0.53 | 0.05 | 28 | 1018.9 |
| 20260507161005 | 13 | 109 | 1.6 | 8.0 | 0.03 | 0.53 | 0.05 | 27 | 1018.9 |
| 20260507160504 | 13 | 120 | 0.0 | 4.8 | 0.03 | 0.53 | 0.05 | 30 | 1019.2 |
| 20260507160005 | 13 | 104 | 0.0 | 3.2 | 0.03 | 0.53 | 0.05 | 30 | 1019.2 |
| 20260507155505 | 13 | 85 | 1.6 | 6.4 | 0.05 | 0.53 | 0.05 | 31 | 1018.8 |
| 20260507155005 | 12 | 93 | 1.6 | 8.0 | 0.05 | 0.53 | 0.05 | 32 | 1018.9 |
| 20260507154504 | 12 | 112 | 1.6 | 8.0 | 0.05 | 0.53 | 0.05 | 32 | 1019.0 |
| 20260507154005 | 12 | 111 | 1.6 | 6.4 | 0.05 | 0.53 | 0.05 | 34 | 1019.0 |
| 20260507153505 | 12 | 112 | 1.6 | 4.8 | 0.03 | 0.51 | 0.03 | 33 | 1019.1 |
| 20260507153005 | 12 | 108 | 1.6 | 9.7 | 0.03 | 0.51 | 0.03 | 36 | 1019.1 |
| 20260507152505 | 11 | 100 | 3.2 | 9.7 | 0.03 | 0.51 | 0.03 | 34 | 1019.1 |
| 20260507152005 | 11 | 104 | 1.6 | 9.7 | 0.03 | 0.51 | 0.03 | 35 | 1019.1 |
| 20260507151504 | 11 | 101 | 1.6 | 6.4 | 0.03 | 0.51 | 0.03 | 38 | 1019.2 |
| 20260507151005 | 11 | 90 | 1.6 | 4.8 | 0.03 | 0.51 | 0.03 | 38 | 1019.2 |
| 20260507150504 | 11 | 98 | 0.0 | 3.2 | 0.03 | 0.51 | 0.03 | 40 | 1019.3 |
| 20260507145505 | 10 | 104 | 0.0 | 3.2 | 0.00 | 0.48 | 0.00 | 43 | 1018.9 |
| 20260507145004 | 10 | 124 | 0.0 | 4.8 | 0.00 | 0.48 | 0.00 | 41 | 1018.8 |
| 20260507144504 | 9 | 153 | 0.0 | 4.8 | 0.00 | 0.48 | 0.00 | 42 | 1018.9 |
| 20260507144005 | 8 | 170 | 0.0 | 4.8 | 0.00 | 0.48 | 0.00 | 46 | 1019.1 |
| 20260507143504 | 8 | 129 | 0.0 | 1.6 | 0.00 | 0.48 | 0.00 | 46 | 1019.1 |
| 20260507143004 | 8 | 149 | 0.0 | 3.2 | 0.00 | 0.48 | 0.00 | 47 | 1019.1 |
| 20260507142504 | 8 | 161 | 0.0 | 3.2 | 0.00 | 0.48 | 0.00 | 48 | 1019.1 |
| 20260507142004 | 7 | 151 | 0.0 | 1.6 | 0.00 | 0.48 | 0.00 | 50 | 1019.2 |
| 20260507141504 | 7 | 189 | 0.0 | 1.6 | 0.00 | 0.48 | 0.00 | 50 | 1019.2 |
| 20260507141004 | 7 | 183 | 0.0 | 1.6 | 0.00 | 0.48 | 0.00 | 51 | 1019.2 |
| 20260507140504 | 6 | 202 | 0.0 | 1.6 | 0.00 | 0.48 | 0.00 | 50 | 1019.3 |
| 20260507140005 | 6 | 209 | 0.0 | 1.6 | 0.00 | 0.48 | 0.00 | 51 | 1019.3 |
| 20260507135504 | 6 | 207 | 0.0 | 1.6 | 0.00 | 0.48 | 0.00 | 51 | 1018.8 |
| 20260507135004 | 6 | 194 | 0.0 | 1.6 | 0.00 | 0.48 | 0.00 | 51 | 1018.8 |
| 20260507134004 | 5 | 157 | 0.0 | 1.6 | 0.00 | 0.48 | 0.00 | 53 | 1018.8 |
| 20260507133004 | 4 | 211 | 0.0 | 8.0 | 0.00 | 0.48 | 0.00 | 54 | 1018.7 |
| 20260507132504 | 3 | 207 | 0.0 | 8.0 | 0.00 | 0.48 | 0.00 | 54 | 1018.5 |
| 20260507132005 | 3 | 205 | 0.0 | 4.8 | 0.00 | 0.48 | 0.00 | 56 | 1018.5 |
| 20260507131505 | 3 | 204 | 0.0 | 4.8 | 0.00 | 0.48 | 0.00 | 57 | 1018.5 |
| 20260507131005 | 2 | 206 | 1.6 | 4.8 | 0.00 | 0.48 | 0.00 | 58 | 1018.4 |
| 20260507130504 | 2 | 204 | 1.6 | 4.8 | 0.00 | 0.48 | 0.00 | 59 | 1018.4 |
| 20260507130005 | 1 | 203 | 0.0 | 3.2 | 0.00 | 0.48 | 0.00 | 60 | 1018.4 |
| 20260507125505 | 1 | 211 | 0.0 | 6.4 | 0.00 | 0.48 | 0.00 | 60 | 1018.3 |
| 20260507125004 | 1 | 206 | 0.0 | 6.4 | 0.00 | 0.48 | 0.00 | 61 | 1018.3 |
| 20260507124504 | 1 | 199 | 0.0 | 4.8 | 0.00 | 0.48 | 0.00 | 62 | 1018.2 |
| 20260507124005 | 1 | 222 | 0.0 | 1.6 | 0.00 | 0.48 | 0.00 | 61 | 1018.2 |
| 20260507123504 | 1 | 220 | 0.0 | 1.6 | 0.00 | 0.48 | 0.00 | 62 | 1018.2 |
| 20260507123005 | 0 | 223 | 0.0 | 4.8 | 0.00 | 0.48 | 0.00 | 61 | 1018.2 |
| 20260507122504 | 0 | 221 | 0.0 | 4.8 | 0.00 | 0.48 | 0.00 | 62 | 1018.2 |
| 20260507121504 | 0 | 211 | 0.0 | 3.2 | 0.00 | 0.48 | 0.00 | 61 | 1018.2 |
| 20260507121004 | 0 | 200 | 1.6 | 6.4 | 0.00 | 0.48 | 0.00 | 61 | 1018.2 |
| 20260507120505 | 0 | 201 | 1.6 | 6.4 | 0.00 | 0.48 | 0.00 | 61 | 1018.3 |
| 20260507120005 | 0 | 210 | 0.0 | 3.2 | 0.00 | 0.48 | 0.00 | 62 | 1018.3 |
| 20260507115505 | 0 | 220 | 0.0 | 1.6 | 0.00 | 0.48 | 0.00 | 61 | 1017.7 |
| 20260507115004 | 0 | 213 | 0.0 | 6.4 | 0.00 | 0.48 | 0.00 | 61 | 1017.9 |
| 20260507114504 | 0 | 208 | 0.0 | 6.4 | 0.00 | 0.48 | 0.00 | 61 | 1017.9 |
| 20260507114004 | 0 | 197 | 0.0 | 4.8 | 0.00 | 0.48 | 0.00 | 61 | 1017.9 |
| 20260507113504 | 0 | 200 | 0.0 | 4.8 | 0.00 | 0.48 | 0.00 | 61 | 1017.9 |
| 20260507113004 | 0 | 216 | 0.0 | 1.6 | 0.00 | 0.48 | 0.00 | 60 | 1017.9 |
| 20260507112004 | 0 | 224 | 0.0 | 1.6 | 0.00 | 0.48 | 0.00 | 60 | 1017.8 |
| 20260507111506 | 0 | 226 | 0.0 | 1.6 | 0.00 | 0.48 | 0.00 | 60 | 1017.8 |
| 20260507111004 | 0 | 223 | 0.0 | 1.6 | 0.00 | 0.48 | 0.00 | 60 | 1017.8 |
| 20260507110504 | 0 | 210 | 0.0 | 3.2 | 0.00 | 0.48 | 0.00 | 60 | 1018.0 |
| 20260507110004 | 0 | 189 | 0.0 | 3.2 | 0.00 | 0.48 | 0.00 | 60 | 1017.8 |
| 20260507105504 | 0 | 191 | 1.6 | 4.8 | 0.00 | 0.48 | 0.00 | 60 | 1017.7 |
| 20260507105005 | 0 | 185 | 1.6 | 4.8 | 0.00 | 0.48 | 0.00 | 60 | 1017.7 |
| 20260507104504 | 0 | 189 | 1.6 | 4.8 | 0.00 | 0.48 | 0.00 | 61 | 1017.6 |
| 20260507103504 | 0 | 195 | 0.0 | 3.2 | 0.00 | 0.48 | 0.00 | 62 | 1017.7 |
| 20260507103005 | 0 | 205 | 1.6 | 4.8 | 0.00 | 0.48 | 0.00 | 62 | 1017.7 |
| 20260507102504 | 0 | 208 | 1.6 | 4.8 | 0.00 | 0.48 | 0.00 | 62 | 1017.7 |
| 20260507102006 | 0 | 206 | 1.6 | 4.8 | 0.00 | 0.48 | 0.00 | 63 | 1017.8 |
| 20260507101504 | 0 | 206 | 1.6 | 4.8 | 0.00 | 0.48 | 0.00 | 63 | 1017.8 |
| 20260507101004 | 0 | 209 | 0.0 | 3.2 | 0.00 | 0.48 | 0.00 | 63 | 1018.0 |
| 20260507100504 | 0 | 214 | 0.0 | 3.2 | 0.00 | 0.48 | 0.00 | 63 | 1018.0 |
| 20260507100005 | 0 | 212 | 0.0 | 3.2 | 0.00 | 0.48 | 0.00 | 64 | 1018.1 |
| 20260507095004 | 0 | 217 | 0.0 | 3.2 | 0.00 | 0.48 | 0.00 | 65 | 1018.0 |
| 20260507094504 | 0 | 217 | 0.0 | 3.2 | 0.00 | 0.48 | 0.00 | 65 | 1017.9 |
| 20260507094005 | 0 | 216 | 0.0 | 3.2 | 0.00 | 0.48 | 0.00 | 65 | 1018.0 |
| 20260507093504 | 0 | 208 | 0.0 | 3.2 | 0.00 | 0.48 | 0.00 | 66 | 1018.0 |
| 20260507092505 | 0 | 203 | 1.6 | 3.2 | 0.00 | 0.48 | 0.00 | 67 | 1018.0 |
| 20260507092005 | 0 | 209 | 0.0 | 3.2 | 0.00 | 0.48 | 0.00 | 69 | 1018.0 |
| 20260507091504 | -1 | 204 | 0.0 | 1.6 | 0.00 | 0.48 | 0.00 | 70 | 1018.2 |
| 20260507091004 | -1 | 205 | 0.0 | 1.6 | 0.00 | 0.48 | 0.00 | 71 | 1018.2 |
| 20260507090504 | -1 | 205 | 0.0 | 1.6 | 0.00 | 0.48 | 0.00 | 72 | 1018.3 |
| 20260507090005 | -1 | 205 | 0.0 | 1.6 | 0.00 | 0.48 | 0.00 | 73 | 1018.4 |
| 20260507085504 | -1 | 205 | 0.0 | 1.6 | 0.00 | 0.48 | 0.00 | 74 | 1018.4 |
| 20260507085004 | -1 | 0 | 0.0 | 0.0 | 0.00 | 0.48 | 0.00 | 75 | 1018.3 |
| 20260507084505 | -1 | 201 | 0.0 | 1.6 | 0.00 | 0.48 | 0.00 | 75 | 1018.3 |
| 20260507084004 | -1 | 216 | 0.0 | 3.2 | 0.00 | 0.48 | 0.00 | 76 | 1018.3 |
| 20260507083504 | -1 | 216 | 0.0 | 3.2 | 0.00 | 0.48 | 0.00 | 78 | 1018.4 |
| 20260507083005 | -1 | 177 | 0.0 | 1.6 | 0.00 | 0.48 | 0.00 | 78 | 1018.2 |
| 20260507082504 | -1 | 167 | 0.0 | 1.6 | 0.00 | 0.48 | 0.00 | 80 | 1018.5 |
| 20260507082004 | -1 | 169 | 0.0 | 1.6 | 0.00 | 0.48 | 0.00 | 81 | 1018.5 |
| 20260507081504 | -1 | 190 | 0.0 | 3.2 | 0.00 | 0.48 | 0.00 | 82 | 1018.5 |
| 20260507081005 | -2 | 209 | 0.0 | 3.2 | 0.00 | 0.48 | 0.00 | 84 | 1018.5 |
| 20260507080504 | -2 | 236 | 0.0 | 1.6 | 0.00 | 0.48 | 0.00 | 85 | 1018.6 |
| 20260507080005 | -2 | 255 | 0.0 | 1.6 | 0.00 | 0.48 | 0.00 | 85 | 1018.7 |
| 20260507075504 | -2 | 0 | 0.0 | 0.0 | 0.00 | 0.48 | 0.00 | 86 | 1018.7 |
| 20260507075005 | -2 | 0 | 0.0 | 0.0 | 0.00 | 0.48 | 0.00 | 86 | 1018.6 |
| 20260507074504 | -2 | 0 | 0.0 | 0.0 | 0.00 | 0.48 | 0.00 | 87 | 1018.7 |
| 20260507074004 | -2 | 0 | 0.0 | 0.0 | 0.00 | 0.48 | 0.00 | 88 | 1018.8 |
| 20260507073004 | -2 | 0 | 0.0 | 0.0 | 0.00 | 0.48 | 0.00 | 90 | 1018.9 |
| 20260507072505 | -2 | 0 | 0.0 | 0.0 | 0.00 | 0.48 | 0.00 | 91 | 1018.9 |
| 20260507071505 | -2 | 0 | 0.0 | 0.0 | 0.00 | 0.48 | 0.00 | 93 | 1018.9 |
| 20260507071004 | -3 | 0 | 0.0 | 0.0 | 0.00 | 0.48 | 0.00 | 93 | 1018.9 |
| 20260507070504 | -3 | 0 | 0.0 | 0.0 | 0.00 | 0.48 | 0.00 | 93 | 1018.9 |
| 20260507070009 | -3 | 0 | 0.0 | 0.0 | 0.00 | 0.48 | 0.00 | 93 | 1018.9 |
| 20260507065504 | -3 | 0 | 0.0 | 0.0 | 0.00 | 0.48 | 0.00 | 93 | 1019.0 |
| 20260507065004 | -2 | 0 | 0.0 | 0.0 | 0.00 | 0.48 | 0.00 | 93 | 1018.9 |
| 20260507064504 | -2 | 0 | 0.0 | 0.0 | 0.00 | 0.48 | 0.00 | 93 | 1018.9 |
| 20260507064004 | -2 | 0 | 0.0 | 0.0 | 0.00 | 0.48 | 0.00 | 93 | 1019.0 |
| 20260507063004 | -2 | 0 | 0.0 | 0.0 | 0.00 | 0.48 | 0.00 | 93 | 1018.9 |
| 20260507062504 | -2 | 0 | 0.0 | 0.0 | 0.00 | 0.48 | 0.00 | 93 | 1018.9 |
| 20260507062004 | -2 | 0 | 0.0 | 0.0 | 0.00 | 0.48 | 0.00 | 93 | 1018.9 |
| 20260507061504 | -2 | 0 | 0.0 | 0.0 | 0.00 | 0.48 | 0.00 | 93 | 1018.9 |
| 20260507061004 | -2 | 0 | 0.0 | 0.0 | 0.00 | 0.48 | 0.00 | 93 | 1018.9 |
| 20260507060504 | -2 | 0 | 0.0 | 0.0 | 0.00 | 0.48 | 0.00 | 93 | 1018.9 |
| 20260507060009 | -2 | 0 | 0.0 | 0.0 | 0.00 | 0.48 | 0.00 | 93 | 1018.9 |
| 20260507055504 | -2 | 0 | 0.0 | 0.0 | 0.00 | 0.48 | 0.48 | 93 | 1018.8 |
| 20260507055005 | -2 | 0 | 0.0 | 0.0 | 0.00 | 0.48 | 0.48 | 93 | 1018.7 |
| 20260507054504 | -1 | 0 | 0.0 | 0.0 | 0.00 | 0.48 | 0.48 | 92 | 1018.6 |
| 20260507054005 | -1 | 0 | 0.0 | 0.0 | 0.00 | 0.48 | 0.48 | 92 | 1018.6 |
| 20260507053504 | -1 | 321 | 0.0 | 1.6 | 0.00 | 0.48 | 0.48 | 92 | 1018.7 |
| 20260507053005 | -1 | 321 | 0.0 | 1.6 | 0.00 | 0.48 | 0.48 | 92 | 1018.7 |
| 20260507052504 | -1 | 314 | 0.0 | 3.2 | 0.00 | 0.48 | 0.48 | 92 | 1018.7 |
| 20260507052005 | -1 | 314 | 0.0 | 3.2 | 0.00 | 0.48 | 0.48 | 92 | 1018.6 |
| 20260507050504 | -1 | 311 | 0.0 | 3.2 | 0.00 | 0.48 | 0.48 | 91 | 1018.6 |
| 20260507050005 | -1 | 282 | 0.0 | 3.2 | 0.00 | 0.48 | 0.48 | 91 | 1018.6 |
| 20260507045504 | -1 | 284 | 0.0 | 3.2 | 0.00 | 0.48 | 0.48 | 91 | 1018.6 |
| 20260507045005 | -1 | 297 | 0.0 | 3.2 | 0.00 | 0.48 | 0.48 | 91 | 1018.7 |
| 20260507044504 | -1 | 281 | 0.0 | 3.2 | 0.00 | 0.48 | 0.48 | 91 | 1018.7 |
| 20260507044004 | -1 | 287 | 0.0 | 3.2 | 0.00 | 0.48 | 0.48 | 91 | 1018.6 |
| 20260507043504 | -1 | 303 | 0.0 | 3.2 | 0.00 | 0.48 | 0.48 | 91 | 1018.7 |
| 20260507042504 | -1 | 303 | 0.0 | 4.8 | 0.00 | 0.48 | 0.48 | 91 | 1018.8 |
| 20260507042004 | -1 | 303 | 0.0 | 3.2 | 0.00 | 0.48 | 0.48 | 91 | 1018.8 |
| 20260507041504 | -1 | 300 | 1.6 | 4.8 | 0.00 | 0.48 | 0.48 | 90 | 1018.8 |
| 20260507041005 | -1 | 304 | 0.0 | 4.8 | 0.00 | 0.48 | 0.48 | 90 | 1018.9 |
| 20260507040504 | -1 | 307 | 0.0 | 4.8 | 0.00 | 0.48 | 0.48 | 90 | 1018.8 |
| 20260507040004 | -1 | 304 | 0.0 | 4.8 | 0.00 | 0.48 | 0.48 | 89 | 1018.8 |
| 20260507035504 | -1 | 299 | 0.0 | 3.2 | 0.00 | 0.48 | 0.48 | 89 | 1018.8 |
| 20260507034004 | -1 | 302 | 0.0 | 4.8 | 0.00 | 0.48 | 0.48 | 87 | 1018.7 |
| 20260507033004 | 0 | 68 | 0.0 | 1.6 | 0.00 | 0.48 | 0.48 | 87 | 1018.6 |
| 20260507032004 | 0 | 309 | 0.0 | 3.2 | 0.00 | 0.48 | 0.48 | 86 | 1018.4 |
| 20260507031504 | 0 | 302 | 0.0 | 3.2 | 0.00 | 0.48 | 0.48 | 86 | 1018.4 |
| 20260507031005 | 0 | 300 | 0.0 | 3.2 | 0.00 | 0.48 | 0.48 | 85 | 1018.4 |
| 20260507030504 | 0 | 300 | 0.0 | 1.6 | 0.00 | 0.48 | 0.48 | 85 | 1018.3 |
| 20260507030005 | 0 | 278 | 0.0 | 3.2 | 0.00 | 0.48 | 0.48 | 85 | 1018.3 |
| 20260507025504 | 0 | 222 | 0.0 | 3.2 | 0.00 | 0.48 | 0.48 | 84 | 1018.2 |
| 20260507025005 | 0 | 128 | 0.0 | 1.6 | 0.00 | 0.48 | 0.48 | 84 | 1018.2 |
| 20260507023504 | 0 | 356 | 0.0 | 3.2 | 0.00 | 0.48 | 0.48 | 83 | 1018.1 |
| 20260507023004 | 0 | 97 | 0.0 | 3.2 | 0.00 | 0.48 | 0.48 | 82 | 1018.1 |
| 20260507022504 | 0 | 83 | 0.0 | 4.8 | 0.00 | 0.48 | 0.48 | 81 | 1018.1 |
| 20260507022005 | 0 | 76 | 0.0 | 4.8 | 0.00 | 0.48 | 0.48 | 81 | 1018.1 |
| 20260507021005 | 0 | 84 | 1.6 | 4.8 | 0.03 | 0.48 | 0.48 | 80 | 1018.0 |
| 20260507020504 | 0 | 75 | 1.6 | 9.7 | 0.03 | 0.48 | 0.48 | 79 | 1018.0 |
| 20260507020005 | 0 | 60 | 1.6 | 9.7 | 0.03 | 0.48 | 0.48 | 79 | 1017.9 |
| 20260507015504 | 0 | 292 | 0.0 | 6.4 | 0.03 | 0.48 | 0.48 | 79 | 1017.8 |
| 20260507014504 | 1 | 80 | 1.6 | 6.4 | 0.03 | 0.48 | 0.48 | 77 | 1017.9 |
| 20260507014005 | 1 | 68 | 1.6 | 11.3 | 0.03 | 0.48 | 0.48 | 76 | 1017.8 |
| 20260507013504 | 1 | 77 | 1.6 | 11.3 | 0.03 | 0.48 | 0.48 | 76 | 1018.0 |
| 20260507013005 | 1 | 92 | 1.6 | 4.8 | 0.03 | 0.48 | 0.48 | 76 | 1017.9 |
| 20260507012504 | 1 | 81 | 1.6 | 8.0 | 0.03 | 0.48 | 0.48 | 75 | 1017.9 |
| 20260507012004 | 1 | 72 | 1.6 | 9.7 | 0.03 | 0.48 | 0.48 | 74 | 1017.9 |
| 20260507011505 | 1 | 66 | 3.2 | 16.1 | 0.00 | 0.46 | 0.46 | 73 | 1017.7 |
| 20260507011004 | 1 | 64 | 3.2 | 16.1 | 0.00 | 0.46 | 0.46 | 73 | 1017.7 |
| 20260507010504 | 2 | 63 | 3.2 | 14.5 | 0.00 | 0.46 | 0.46 | 73 | 1017.9 |
| 20260507005504 | 2 | 64 | 1.6 | 8.0 | 0.03 | 0.46 | 0.46 | 72 | 1017.7 |
| 20260507005004 | 2 | 57 | 3.2 | 11.3 | 0.03 | 0.48 | 0.46 | 72 | 1017.7 |
| 20260507004504 | 2 | 60 | 3.2 | 11.3 | 0.03 | 0.48 | 0.46 | 70 | 1017.6 |
| 20260507004005 | 2 | 70 | 3.2 | 11.3 | 0.03 | 0.48 | 0.46 | 68 | 1017.5 |
| 20260507003504 | 3 | 69 | 3.2 | 14.5 | 0.03 | 0.48 | 0.46 | 67 | 1017.6 |
| 20260507003004 | 3 | 66 | 3.2 | 14.5 | 0.03 | 0.48 | 0.46 | 65 | 1017.5 |
| 20260507002004 | 4 | 328 | 1.6 | 9.7 | 0.05 | 0.48 | 0.46 | 65 | 1017.6 |
| 20260507001505 | 4 | 113 | 1.6 | 6.4 | 0.05 | 0.48 | 0.46 | 64 | 1017.6 |
| 20260507001004 | 4 | 78 | 1.6 | 9.7 | 0.05 | 0.48 | 0.46 | 66 | 1017.6 |
| 20260507000505 | 4 | 85 | 1.6 | 9.7 | 0.05 | 0.48 | 0.46 | 64 | 1017.7 |
| 20260507000004 | 5 | 107 | 1.6 | 8.0 | 0.05 | 0.46 | 0.43 | 62 | 1017.7 |
| 20260506235505 | 5 | 101 | 1.6 | 8.0 | 0.05 | 0.46 | 0.43 | 61 | 1017.6 |
| 20260506235004 | 5 | 99 | 0.0 | 8.0 | 0.05 | 0.46 | 0.43 | 59 | 1017.7 |
| 20260506234504 | 5 | 104 | 1.6 | 8.0 | 0.05 | 0.48 | 0.43 | 64 | 1017.5 |
| 20260506233504 | 5 | 76 | 0.0 | 3.2 | 0.08 | 0.48 | 0.43 | 67 | 1017.4 |
| 20260506233004 | 4 | 100 | 0.0 | 3.2 | 0.08 | 0.48 | 0.43 | 67 | 1017.6 |
| 20260506231504 | 3 | 57 | 0.0 | 3.2 | 0.08 | 0.46 | 0.41 | 69 | 1017.8 |
| 20260506231005 | 3 | 307 | 0.0 | 1.6 | 0.10 | 0.46 | 0.41 | 68 | 1017.7 |
| 20260506230504 | 3 | 75 | 0.0 | 1.6 | 0.10 | 0.46 | 0.41 | 68 | 1017.7 |
| 20260506230005 | 3 | 91 | 0.0 | 1.6 | 0.08 | 0.43 | 0.38 | 70 | 1017.7 |